Location: Broletto
(44.6000°N, 10.5833°E)
Time: 07:55:26
(UTC+00:00)

Cosmos 1633 - Pass Details

Date: 18 April 2021
Orbit: 461 x 478 km, 82.5° (Epoch: 06 May)

Event Time Altitude Azimuth Distance (km) Brightness Sun altitude
Rises 20:59:17 0° 340° (NNW) 2,536 7.4 -26.2°
Reaches altitude 10° 21:01:36 10° 327° (NNW) 1,649 6.3 -26.4°
Enters shadow 21:04:17 26° 281° (W) 974 4.5 -26.7°
